Year,Month,Day,Hour,Minute,Value (Times are PST for temperature in C)
2012,03,01,00,00,0.90
2012,03,01,00,01,0.90
2012,03,01,00,02,0.80
2012,03,01,00,03,0.90
2012,03,01,00,04,0.90
2012,03,01,00,05,0.90
2012,03,01,00,06,0.90
2012,03,01,00,07,0.90
2012,03,01,00,08,0.90
2012,03,01,00,09,0.90
2012,03,01,00,10,0.90
2012,03,01,00,11,0.90
2012,03,01,00,12,0.90
2012,03,01,00,13,0.90
2012,03,01,00,14,0.80
2012,03,01,00,15,0.80
2012,03,01,00,16,0.80
2012,03,01,00,17,0.80
2012,03,01,00,18,0.80
2012,03,01,00,19,0.80
2012,03,01,00,20,0.80
2012,03,01,00,21,0.80
2012,03,01,00,22,0.80
2012,03,01,00,23,0.80
2012,03,01,00,24,0.80
2012,03,01,00,25,0.80
2012,03,01,00,26,0.70
2012,03,01,00,27,0.70
2012,03,01,00,28,0.80
2012,03,01,00,29,0.80
2012,03,01,00,30,0.80
2012,03,01,00,31,0.80
2012,03,01,00,32,0.80
2012,03,01,00,33,0.80
2012,03,01,00,34,0.80
2012,03,01,00,35,0.80
2012,03,01,00,36,0.80
2012,03,01,00,37,0.80
2012,03,01,00,38,0.80
2012,03,01,00,39,0.80
2012,03,01,00,40,0.80
2012,03,01,00,41,0.80
2012,03,01,00,42,0.80
2012,03,01,00,43,0.90
2012,03,01,00,44,0.90
2012,03,01,00,45,0.90
2012,03,01,00,46,0.90
2012,03,01,00,47,0.90
2012,03,01,00,48,0.90
2012,03,01,00,49,0.90
2012,03,01,00,50,0.90
2012,03,01,00,51,0.90
2012,03,01,00,52,0.90
2012,03,01,00,53,0.90
2012,03,01,00,54,0.90
2012,03,01,00,55,0.90
2012,03,01,00,56,0.90
2012,03,01,00,57,0.90
2012,03,01,00,58,0.90
2012,03,01,00,59,0.90
2012,03,01,01,00,0.90
2012,03,01,01,01,0.90
2012,03,01,01,02,0.90
2012,03,01,01,03,0.90
2012,03,01,01,04,0.90
2012,03,01,01,05,0.90
2012,03,01,01,06,0.90
2012,03,01,01,07,0.90
2012,03,01,01,08,0.90
2012,03,01,01,09,0.90
2012,03,01,01,10,0.90
2012,03,01,01,11,0.90
2012,03,01,01,12,0.90
2012,03,01,01,13,0.90
2012,03,01,01,14,0.80
2012,03,01,01,15,0.80
2012,03,01,01,16,0.80
2012,03,01,01,17,0.80
2012,03,01,01,18,0.80
2012,03,01,01,19,0.80
2012,03,01,01,20,0.70
2012,03,01,01,21,0.70
2012,03,01,01,22,0.70
2012,03,01,01,23,0.70
2012,03,01,01,24,0.60
2012,03,01,01,25,0.60
2012,03,01,01,26,0.60
2012,03,01,01,27,0.60
2012,03,01,01,28,0.60
2012,03,01,01,29,0.60
2012,03,01,01,30,0.60
2012,03,01,01,31,0.60
2012,03,01,01,32,0.60
2012,03,01,01,33,0.60
2012,03,01,01,34,0.60
2012,03,01,01,35,0.50
2012,03,01,01,36,0.50
2012,03,01,01,37,0.50
2012,03,01,01,38,0.50
2012,03,01,01,39,0.50
2012,03,01,01,40,0.50
2012,03,01,01,41,0.50
2012,03,01,01,42,0.50
2012,03,01,01,43,0.50
2012,03,01,01,44,0.50
2012,03,01,01,45,0.50
2012,03,01,01,46,0.50
2012,03,01,01,47,0.50
2012,03,01,01,48,0.50
2012,03,01,01,49,0.40
2012,03,01,01,50,0.40
2012,03,01,01,51,0.30
2012,03,01,01,52,0.30
2012,03,01,01,53,0.20
2012,03,01,01,54,0.20
2012,03,01,01,55,0.20
2012,03,01,01,56,0.10
2012,03,01,01,57,0.10
2012,03,01,01,58,0.10
2012,03,01,01,59,0.00
2012,03,01,02,00,0.00
2012,03,01,02,01,0.00
2012,03,01,02,02,0.00
2012,03,01,02,03,0.00
2012,03,01,02,04,0.00
2012,03,01,02,05,0.00
2012,03,01,02,06,0.00
2012,03,01,02,07,0.00
2012,03,01,02,08,0.00
2012,03,01,02,09,0.00
2012,03,01,02,10,0.00
2012,03,01,02,11,0.10
2012,03,01,02,12,0.10
2012,03,01,02,13,0.20
2012,03,01,02,14,0.20
2012,03,01,02,15,0.20
2012,03,01,02,16,0.20
2012,03,01,02,17,0.30
2012,03,01,02,18,0.30
2012,03,01,02,19,0.30
2012,03,01,02,20,0.30
2012,03,01,02,21,0.30
2012,03,01,02,22,0.30
2012,03,01,02,23,0.30
2012,03,01,02,24,0.30
2012,03,01,02,25,0.30
2012,03,01,02,26,0.30
2012,03,01,02,27,0.30
2012,03,01,02,28,0.30
2012,03,01,02,29,0.30
2012,03,01,02,30,0.30
2012,03,01,02,31,0.30
2012,03,01,02,32,0.20
2012,03,01,02,33,0.20
2012,03,01,02,34,0.20
2012,03,01,02,35,0.20
2012,03,01,02,36,0.20
2012,03,01,02,37,0.20
2012,03,01,02,38,0.20
2012,03,01,02,39,0.10
2012,03,01,02,40,0.10
2012,03,01,02,41,0.10
2012,03,01,02,42,0.10
2012,03,01,02,43,0.10
2012,03,01,02,44,0.10
2012,03,01,02,45,0.10
2012,03,01,02,46,0.10
2012,03,01,02,47,0.10
2012,03,01,02,48,0.10
2012,03,01,02,49,0.10
2012,03,01,02,50,0.10
2012,03,01,02,51,0.10
2012,03,01,02,52,0.00
2012,03,01,02,53,0.00
2012,03,01,02,54,0.00
2012,03,01,02,55,0.00
2012,03,01,02,56,0.00
2012,03,01,02,57,-0.10
2012,03,01,02,58,-0.10
2012,03,01,02,59,-0.10
2012,03,01,03,00,-0.10
2012,03,01,03,01,-0.10
2012,03,01,03,02,-0.10
2012,03,01,03,03,-0.10
2012,03,01,03,04,-0.10
2012,03,01,03,05,-0.10
2012,03,01,03,06,-0.10
2012,03,01,03,07,-0.10
2012,03,01,03,08,0.00
2012,03,01,03,09,0.00
2012,03,01,03,10,0.00
2012,03,01,03,11,0.00
2012,03,01,03,12,0.00
2012,03,01,03,13,0.00
2012,03,01,03,14,0.00
2012,03,01,03,15,0.10
2012,03,01,03,16,0.10
2012,03,01,03,17,0.10
2012,03,01,03,18,0.10
2012,03,01,03,19,0.10
2012,03,01,03,20,0.10
2012,03,01,03,21,0.10
2012,03,01,03,22,0.10
2012,03,01,03,23,0.10
2012,03,01,03,24,0.10
2012,03,01,03,25,0.10
2012,03,01,03,26,0.10
2012,03,01,03,27,0.10
2012,03,01,03,28,0.10
2012,03,01,03,29,0.10
2012,03,01,03,30,0.10
2012,03,01,03,31,0.10
2012,03,01,03,32,0.10
2012,03,01,03,33,0.10
2012,03,01,03,34,0.10
2012,03,01,03,35,0.10
2012,03,01,03,36,0.10
2012,03,01,03,37,0.10
2012,03,01,03,38,0.10
2012,03,01,03,39,0.10
2012,03,01,03,40,0.10
2012,03,01,03,41,0.10
2012,03,01,03,42,0.10
2012,03,01,03,43,0.10
2012,03,01,03,44,0.00
2012,03,01,03,45,0.00
2012,03,01,03,46,0.00
2012,03,01,03,47,0.10
2012,03,01,03,48,0.10
2012,03,01,03,49,0.10
2012,03,01,03,50,0.10
2012,03,01,03,51,0.10
2012,03,01,03,52,0.00
2012,03,01,03,53,0.10
2012,03,01,03,54,0.00
2012,03,01,03,55,0.00
2012,03,01,03,56,0.00
2012,03,01,03,57,0.00
2012,03,01,03,58,0.00
2012,03,01,03,59,-0.10
2012,03,01,04,00,-0.10
2012,03,01,04,01,-0.10
2012,03,01,04,02,-0.20
2012,03,01,04,03,-0.20
2012,03,01,04,04,-0.20
2012,03,01,04,05,-0.20
2012,03,01,04,06,-0.20
2012,03,01,04,07,-0.10
2012,03,01,04,08,-0.10
2012,03,01,04,09,-0.10
2012,03,01,04,10,-0.10
2012,03,01,04,11,-0.10
2012,03,01,04,12,0.00
2012,03,01,04,13,0.00
2012,03,01,04,14,0.00
2012,03,01,04,15,0.00
2012,03,01,04,16,0.00
2012,03,01,04,17,0.10
2012,03,01,04,18,0.10
2012,03,01,04,19,0.10
2012,03,01,04,20,0.10
2012,03,01,04,21,0.10
2012,03,01,04,22,0.10
2012,03,01,04,23,0.10
2012,03,01,04,24,0.10
2012,03,01,04,25,0.10
2012,03,01,04,26,0.10
2012,03,01,04,27,0.10
2012,03,01,04,28,0.10
2012,03,01,04,29,0.10
2012,03,01,04,30,0.20
2012,03,01,04,31,0.20
2012,03,01,04,32,0.20
2012,03,01,04,33,0.30
2012,03,01,04,34,0.30
2012,03,01,04,35,0.30
2012,03,01,04,36,0.30
2012,03,01,04,37,0.30
2012,03,01,04,38,0.40
2012,03,01,04,39,0.40
2012,03,01,04,40,0.40
2012,03,01,04,41,0.40
2012,03,01,04,42,0.50
2012,03,01,04,43,0.50
2012,03,01,04,44,0.50
2012,03,01,04,45,0.50
2012,03,01,04,46,0.40
2012,03,01,04,47,0.40
2012,03,01,04,48,0.40
2012,03,01,04,49,0.40
2012,03,01,04,50,0.30
2012,03,01,04,51,0.30
2012,03,01,04,52,0.30
2012,03,01,04,53,0.20
2012,03,01,04,54,0.20
2012,03,01,04,55,0.20
2012,03,01,04,56,0.20
2012,03,01,04,57,0.30
2012,03,01,04,58,0.30
2012,03,01,04,59,0.30
2012,03,01,05,00,0.30
2012,03,01,05,01,0.30
2012,03,01,05,02,0.20
2012,03,01,05,03,0.20
2012,03,01,05,04,0.20
2012,03,01,05,05,0.10
2012,03,01,05,06,0.10
2012,03,01,05,07,0.00
2012,03,01,05,08,-0.10
2012,03,01,05,09,-0.10
2012,03,01,05,10,-0.10
2012,03,01,05,11,-0.10
2012,03,01,05,12,-0.20
2012,03,01,05,13,-0.20
2012,03,01,05,14,-0.20
2012,03,01,05,15,-0.20
2012,03,01,05,16,-0.20
2012,03,01,05,17,-0.20
2012,03,01,05,18,-0.30
2012,03,01,05,19,-0.30
2012,03,01,05,20,-0.30
2012,03,01,05,21,-0.30
2012,03,01,05,22,-0.30
2012,03,01,05,23,-0.40
2012,03,01,05,24,-0.40
2012,03,01,05,25,-0.40
2012,03,01,05,26,-0.30
2012,03,01,05,27,-0.40
2012,03,01,05,28,-0.40
2012,03,01,05,29,-0.40
2012,03,01,05,30,-0.40
2012,03,01,05,31,-0.40
2012,03,01,05,32,-0.40
2012,03,01,05,33,-0.50
2012,03,01,05,34,-0.50
2012,03,01,05,35,-0.60
2012,03,01,05,36,-0.60
2012,03,01,05,37,-0.70
2012,03,01,05,38,-0.70
2012,03,01,05,39,-0.70
2012,03,01,05,40,-0.70
2012,03,01,05,41,-0.70
2012,03,01,05,42,-0.80
2012,03,01,05,43,-0.80
2012,03,01,05,44,-0.80
2012,03,01,05,45,-0.80
2012,03,01,05,46,-0.80
2012,03,01,05,47,-0.80
2012,03,01,05,48,-0.90
2012,03,01,05,49,-0.90
2012,03,01,05,50,-0.90
2012,03,01,05,51,-1.00
2012,03,01,05,52,-1.00
2012,03,01,05,53,-1.00
2012,03,01,05,54,-1.10
2012,03,01,05,55,-1.10
2012,03,01,05,56,-1.10
2012,03,01,05,57,-1.10
2012,03,01,05,58,-1.10
2012,03,01,05,59,-1.20
2012,03,01,06,00,-1.20
2012,03,01,06,01,-1.20
2012,03,01,06,02,-1.20
2012,03,01,06,03,-1.20
2012,03,01,06,04,-1.20
2012,03,01,06,05,-1.20
2012,03,01,06,06,-1.20
2012,03,01,06,07,-1.20
2012,03,01,06,08,-1.20
2012,03,01,06,09,-1.10
2012,03,01,06,10,-1.10
2012,03,01,06,11,-1.00
2012,03,01,06,12,-0.90
2012,03,01,06,13,-0.90
2012,03,01,06,14,-0.80
2012,03,01,06,15,-0.80
2012,03,01,06,16,-0.80
2012,03,01,06,17,-0.80
2012,03,01,06,18,-0.80
2012,03,01,06,19,-0.90
2012,03,01,06,20,-0.90
2012,03,01,06,21,-1.00
2012,03,01,06,22,-1.10
2012,03,01,06,23,-1.10
2012,03,01,06,24,-1.20
2012,03,01,06,25,-1.30
2012,03,01,06,26,-1.30
2012,03,01,06,27,-1.30
2012,03,01,06,28,-1.40
2012,03,01,06,29,-1.40
2012,03,01,06,30,-1.40
2012,03,01,06,31,-1.40
2012,03,01,06,32,-1.40
2012,03,01,06,33,-1.40
2012,03,01,06,34,-1.40
2012,03,01,06,35,-1.40
2012,03,01,06,36,-1.40
2012,03,01,06,37,-1.50
2012,03,01,06,38,-1.50
2012,03,01,06,39,-1.50
2012,03,01,06,40,-1.50
2012,03,01,06,41,-1.50
2012,03,01,06,42,-1.50
2012,03,01,06,43,-1.50
2012,03,01,06,44,-1.50
2012,03,01,06,45,-1.50
2012,03,01,06,46,-1.40
2012,03,01,06,47,-1.40
2012,03,01,06,48,-1.40
2012,03,01,06,49,-1.40
2012,03,01,06,50,-1.40
2012,03,01,06,51,-1.50
2012,03,01,06,52,-1.50
2012,03,01,06,53,-1.50
2012,03,01,06,54,-1.50
2012,03,01,06,55,-1.50
2012,03,01,06,56,-1.50
2012,03,01,06,57,-1.50
2012,03,01,06,58,-1.50
2012,03,01,06,59,-1.50
2012,03,01,07,00,-1.50
2012,03,01,07,01,-1.50
2012,03,01,07,02,-1.50
2012,03,01,07,03,-1.50
2012,03,01,07,04,-1.50
2012,03,01,07,05,-1.50
2012,03,01,07,06,-1.50
2012,03,01,07,07,-1.50
2012,03,01,07,08,-1.50
2012,03,01,07,09,-1.50
2012,03,01,07,10,-1.40
2012,03,01,07,11,-1.40
2012,03,01,07,12,-1.40
2012,03,01,07,13,-1.40
2012,03,01,07,14,-1.30
2012,03,01,07,15,-1.40
2012,03,01,07,16,-1.40
2012,03,01,07,17,-1.40
2012,03,01,07,18,-1.40
2012,03,01,07,19,-1.40
2012,03,01,07,20,-1.40
2012,03,01,07,21,-1.40
2012,03,01,07,22,-1.40
2012,03,01,07,23,-1.40
2012,03,01,07,24,-1.40
2012,03,01,07,25,-1.40
2012,03,01,07,26,-1.30
2012,03,01,07,27,-1.40
2012,03,01,07,28,-1.30
2012,03,01,07,29,-1.40
2012,03,01,07,30,-1.40
2012,03,01,07,31,-1.40
2012,03,01,07,32,-1.40
2012,03,01,07,33,-1.40
2012,03,01,07,34,-1.40
2012,03,01,07,35,-1.30
2012,03,01,07,36,-1.30
2012,03,01,07,37,-1.30
2012,03,01,07,38,-1.20
2012,03,01,07,39,-1.20
2012,03,01,07,40,-1.20
2012,03,01,07,41,-1.10
2012,03,01,07,42,-1.10
2012,03,01,07,43,-1.10
2012,03,01,07,44,-1.10
2012,03,01,07,45,-1.20
2012,03,01,07,46,-1.20
2012,03,01,07,47,-1.20
2012,03,01,07,48,-1.20
2012,03,01,07,49,-1.20
2012,03,01,07,50,-1.20
2012,03,01,07,51,-1.20
2012,03,01,07,52,-1.10
2012,03,01,07,53,-1.10
2012,03,01,07,54,-1.10
2012,03,01,07,55,-1.00
2012,03,01,07,56,-1.00
2012,03,01,07,57,-1.00
2012,03,01,07,58,-0.90
2012,03,01,07,59,-0.90
2012,03,01,08,00,-0.90
2012,03,01,08,01,-0.80
2012,03,01,08,02,-0.80
2012,03,01,08,03,-0.70
2012,03,01,08,04,-0.70
2012,03,01,08,05,-0.70
2012,03,01,08,06,-0.70
2012,03,01,08,07,-0.60
2012,03,01,08,08,-0.60
2012,03,01,08,09,-0.60
2012,03,01,08,10,-0.60
2012,03,01,08,11,-0.60
2012,03,01,08,12,-0.60
2012,03,01,08,13,-0.60
2012,03,01,08,14,-0.60
2012,03,01,08,15,-0.60
2012,03,01,08,16,-0.60
2012,03,01,08,17,-0.60
2012,03,01,08,18,-0.50
2012,03,01,08,19,-0.50
2012,03,01,08,20,-0.40
2012,03,01,08,21,-0.40
2012,03,01,08,22,-0.30
2012,03,01,08,23,-0.20
2012,03,01,08,24,-0.20
2012,03,01,08,25,-0.10
2012,03,01,08,26,-0.10
2012,03,01,08,27,-0.10
2012,03,01,08,28,0.00
2012,03,01,08,29,0.10
2012,03,01,08,30,0.20
2012,03,01,08,31,0.20
2012,03,01,08,32,0.30
2012,03,01,08,33,0.40
2012,03,01,08,34,0.40
2012,03,01,08,35,0.50
2012,03,01,08,36,0.60
2012,03,01,08,37,0.60
2012,03,01,08,38,0.60
2012,03,01,08,39,0.70
2012,03,01,08,40,0.70
2012,03,01,08,41,0.70
2012,03,01,08,42,0.80
2012,03,01,08,43,0.80
2012,03,01,08,44,0.90
2012,03,01,08,45,0.90
2012,03,01,08,46,0.90
2012,03,01,08,47,1.00
2012,03,01,08,48,1.00
2012,03,01,08,49,1.10
2012,03,01,08,50,1.10
2012,03,01,08,51,1.10
2012,03,01,08,52,1.10
2012,03,01,08,53,1.10
2012,03,01,08,54,1.20
2012,03,01,08,55,1.20
2012,03,01,08,56,1.20
2012,03,01,08,57,1.30
2012,03,01,08,58,1.30
2012,03,01,08,59,1.30
2012,03,01,09,00,1.30
2012,03,01,09,01,1.30
2012,03,01,09,02,1.30
2012,03,01,09,03,1.30
2012,03,01,09,04,1.30
2012,03,01,09,05,1.30
2012,03,01,09,06,1.40
2012,03,01,09,07,1.40
2012,03,01,09,08,1.40
2012,03,01,09,09,1.50
2012,03,01,09,10,1.60
2012,03,01,09,11,1.60
2012,03,01,09,12,1.70
2012,03,01,09,13,1.70
2012,03,01,09,14,1.70
2012,03,01,09,15,1.70
2012,03,01,09,16,1.70
2012,03,01,09,17,1.70
2012,03,01,09,18,1.70
2012,03,01,09,19,1.70
2012,03,01,09,20,1.70
2012,03,01,09,21,1.70
2012,03,01,09,22,1.80
2012,03,01,09,23,1.80
2012,03,01,09,24,1.80
2012,03,01,09,25,1.90
2012,03,01,09,26,1.90
2012,03,01,09,27,1.90
2012,03,01,09,28,1.90
2012,03,01,09,29,2.00
2012,03,01,09,30,2.00
2012,03,01,09,31,2.10
2012,03,01,09,32,2.10
2012,03,01,09,33,2.10
2012,03,01,09,34,2.20
2012,03,01,09,35,2.20
2012,03,01,09,36,2.20
2012,03,01,09,37,2.20
2012,03,01,09,38,2.30
2012,03,01,09,39,2.30
2012,03,01,09,40,2.30
2012,03,01,09,41,2.30
2012,03,01,09,42,2.30
2012,03,01,09,43,2.30
2012,03,01,09,44,2.40
2012,03,01,09,45,2.40
2012,03,01,09,46,2.40
2012,03,01,09,47,2.40
2012,03,01,09,48,2.50
2012,03,01,09,49,2.40
2012,03,01,09,50,2.50
2012,03,01,09,51,2.60
2012,03,01,09,52,2.60
2012,03,01,09,53,2.70
2012,03,01,09,54,2.70
2012,03,01,09,55,2.70
2012,03,01,09,56,2.80
2012,03,01,09,57,2.70
2012,03,01,09,58,2.70
2012,03,01,09,59,2.70
2012,03,01,10,00,2.70
2012,03,01,10,01,2.70
2012,03,01,10,02,2.80
2012,03,01,10,03,2.80
2012,03,01,10,04,2.80
2012,03,01,10,05,2.80
2012,03,01,10,06,2.90
2012,03,01,10,07,2.90
2012,03,01,10,08,2.90
2012,03,01,10,09,2.90
2012,03,01,10,10,2.90
2012,03,01,10,11,3.00
2012,03,01,10,12,3.00
2012,03,01,10,13,3.00
2012,03,01,10,14,3.10
2012,03,01,10,15,3.10
2012,03,01,10,16,3.10
2012,03,01,10,17,3.10
2012,03,01,10,18,3.10
2012,03,01,10,19,3.10
2012,03,01,10,20,3.10
2012,03,01,10,21,3.10
2012,03,01,10,22,3.20
2012,03,01,10,23,3.20
2012,03,01,10,24,3.20
2012,03,01,10,25,3.20
2012,03,01,10,26,3.30
2012,03,01,10,27,3.30
2012,03,01,10,28,3.40
2012,03,01,10,29,3.40
2012,03,01,10,30,3.50
2012,03,01,10,31,3.50
2012,03,01,10,32,3.50
2012,03,01,10,33,3.60
2012,03,01,10,34,3.70
2012,03,01,10,35,3.70
2012,03,01,10,36,3.70
2012,03,01,10,37,3.70
2012,03,01,10,38,3.80
2012,03,01,10,39,3.80
2012,03,01,10,40,3.80
2012,03,01,10,41,3.80
2012,03,01,10,42,3.80
2012,03,01,10,43,3.80
2012,03,01,10,44,3.90
2012,03,01,10,45,3.90
2012,03,01,10,46,4.00
2012,03,01,10,47,3.90
2012,03,01,10,48,3.80
2012,03,01,10,49,3.80
2012,03,01,10,50,3.80
2012,03,01,10,51,3.70
2012,03,01,10,52,3.70
2012,03,01,10,53,3.70
2012,03,01,10,54,3.70
2012,03,01,10,55,3.60
2012,03,01,10,56,3.60
2012,03,01,10,57,3.60
2012,03,01,10,58,3.50
2012,03,01,10,59,3.50
2012,03,01,11,00,3.40
2012,03,01,11,01,3.40
2012,03,01,11,02,3.40
2012,03,01,11,03,3.40
2012,03,01,11,04,3.40
2012,03,01,11,05,3.40
2012,03,01,11,06,3.50
2012,03,01,11,07,3.50
2012,03,01,11,08,3.60
2012,03,01,11,09,3.60
2012,03,01,11,10,3.60
2012,03,01,11,11,3.70
2012,03,01,11,12,3.70
2012,03,01,11,13,3.70
2012,03,01,11,14,3.70
2012,03,01,11,15,3.70
2012,03,01,11,16,3.70
2012,03,01,11,17,3.80
2012,03,01,11,18,3.80
2012,03,01,11,19,3.80
2012,03,01,11,20,3.90
2012,03,01,11,21,3.90
2012,03,01,11,22,4.00
2012,03,01,11,23,4.10
2012,03,01,11,24,4.20
2012,03,01,11,25,4.30
2012,03,01,11,26,4.50
2012,03,01,11,27,4.60
2012,03,01,11,28,4.70
2012,03,01,11,29,4.80
2012,03,01,11,30,4.90
2012,03,01,11,31,5.00
2012,03,01,11,32,5.00
2012,03,01,11,33,5.10
2012,03,01,11,34,5.20
2012,03,01,11,35,5.20
2012,03,01,11,36,5.30
2012,03,01,11,37,5.40
2012,03,01,11,38,5.50
2012,03,01,11,39,5.50
2012,03,01,11,40,5.60
2012,03,01,11,41,5.60
2012,03,01,11,42,5.70
2012,03,01,11,43,5.60
2012,03,01,11,44,5.60
2012,03,01,11,45,5.50
2012,03,01,11,46,5.40
2012,03,01,11,47,5.30
2012,03,01,11,48,5.30
2012,03,01,11,49,5.30
2012,03,01,11,50,5.30
2012,03,01,11,51,5.30
2012,03,01,11,52,5.40
2012,03,01,11,53,5.40
2012,03,01,11,54,5.50
2012,03,01,11,55,5.60
2012,03,01,11,56,5.70
2012,03,01,11,57,5.80
2012,03,01,11,58,5.90
2012,03,01,11,59,6.00
2012,03,01,12,00,6.00
2012,03,01,12,01,6.10
2012,03,01,12,02,6.20
2012,03,01,12,03,6.20
2012,03,01,12,04,6.30
2012,03,01,12,05,6.30
2012,03,01,12,06,6.30
2012,03,01,12,07,6.40
2012,03,01,12,08,6.50
2012,03,01,12,09,6.50
2012,03,01,12,10,6.50
2012,03,01,12,11,6.50
2012,03,01,12,12,6.50
2012,03,01,12,13,6.40
2012,03,01,12,14,6.30
2012,03,01,12,15,6.30
2012,03,01,12,16,6.30
2012,03,01,12,17,6.30
2012,03,01,12,18,6.30
2012,03,01,12,19,6.30
2012,03,01,12,20,6.30
2012,03,01,12,21,6.40
2012,03,01,12,22,6.40
2012,03,01,12,23,6.40
2012,03,01,12,24,6.50
2012,03,01,12,25,6.60
2012,03,01,12,26,6.60
2012,03,01,12,27,6.60
2012,03,01,12,28,6.60
2012,03,01,12,29,6.60
2012,03,01,12,30,6.60
2012,03,01,12,31,6.70
2012,03,01,12,32,6.70
2012,03,01,12,33,6.60
2012,03,01,12,34,6.60
2012,03,01,12,35,6.60
2012,03,01,12,36,6.60
2012,03,01,12,37,6.60
2012,03,01,12,38,6.60
2012,03,01,12,39,6.60
2012,03,01,12,40,6.60
2012,03,01,12,41,6.60
2012,03,01,12,42,6.70
2012,03,01,12,43,6.70
2012,03,01,12,44,6.80
2012,03,01,12,45,6.80
2012,03,01,12,46,6.80
2012,03,01,12,47,6.70
2012,03,01,12,48,6.60
2012,03,01,12,49,6.60
2012,03,01,12,50,6.50
2012,03,01,12,51,6.40
2012,03,01,12,52,6.40
2012,03,01,12,53,6.40
2012,03,01,12,54,6.40
2012,03,01,12,55,6.30
2012,03,01,12,56,6.30
2012,03,01,12,57,6.40
2012,03,01,12,58,6.40
2012,03,01,12,59,6.40
2012,03,01,13,00,6.30
2012,03,01,13,01,6.30
2012,03,01,13,02,6.30
2012,03,01,13,03,6.30
2012,03,01,13,04,6.30
2012,03,01,13,05,6.20
2012,03,01,13,06,6.20
2012,03,01,13,07,6.20
2012,03,01,13,08,6.30
2012,03,01,13,09,6.30
2012,03,01,13,10,6.20
2012,03,01,13,11,6.20
2012,03,01,13,12,6.20
2012,03,01,13,13,6.10
2012,03,01,13,14,6.10
2012,03,01,13,15,6.10
2012,03,01,13,16,6.10
2012,03,01,13,17,6.10
2012,03,01,13,18,6.00
2012,03,01,13,19,6.00
2012,03,01,13,20,6.00
2012,03,01,13,21,6.10
2012,03,01,13,22,6.10
2012,03,01,13,23,6.10
2012,03,01,13,24,6.10
2012,03,01,13,25,6.20
2012,03,01,13,26,6.20
2012,03,01,13,27,6.20
2012,03,01,13,28,6.20
2012,03,01,13,29,6.20
2012,03,01,13,30,6.20
2012,03,01,13,31,6.20
2012,03,01,13,32,6.20
2012,03,01,13,33,6.20
2012,03,01,13,34,6.20
2012,03,01,13,35,6.20
2012,03,01,13,36,6.30
2012,03,01,13,37,6.30
2012,03,01,13,38,6.40
2012,03,01,13,39,6.40
2012,03,01,13,40,6.30
2012,03,01,13,41,6.30
2012,03,01,13,42,6.30
2012,03,01,13,43,6.30
2012,03,01,13,44,6.30
2012,03,01,13,45,6.30
2012,03,01,13,46,6.30
2012,03,01,13,47,6.20
2012,03,01,13,48,6.20
2012,03,01,13,49,6.20
2012,03,01,13,50,6.10
2012,03,01,13,51,6.10
2012,03,01,13,52,6.10
2012,03,01,13,53,6.10
2012,03,01,13,54,6.10
2012,03,01,13,55,6.10
2012,03,01,13,56,6.00
2012,03,01,13,57,5.90
2012,03,01,13,58,5.90
2012,03,01,13,59,5.90
2012,03,01,14,00,5.90
2012,03,01,14,01,5.90
2012,03,01,14,02,5.90
2012,03,01,14,03,5.90
2012,03,01,14,04,5.90
2012,03,01,14,05,5.90
2012,03,01,14,06,5.90
2012,03,01,14,07,5.90
2012,03,01,14,08,6.00
2012,03,01,14,09,6.00
2012,03,01,14,10,6.10
2012,03,01,14,11,6.20
2012,03,01,14,12,6.20
2012,03,01,14,13,6.30
2012,03,01,14,14,6.30
2012,03,01,14,15,6.30
2012,03,01,14,16,6.30
2012,03,01,14,17,6.40
2012,03,01,14,18,6.50
2012,03,01,14,19,6.50
2012,03,01,14,20,6.60
2012,03,01,14,21,6.60
2012,03,01,14,22,6.60
2012,03,01,14,23,6.60
2012,03,01,14,24,6.60
2012,03,01,14,25,6.60
2012,03,01,14,26,6.60
2012,03,01,14,27,6.50
2012,03,01,14,28,6.50
2012,03,01,14,29,6.40
2012,03,01,14,30,6.50
2012,03,01,14,31,6.50
2012,03,01,14,32,6.50
2012,03,01,14,33,6.50
2012,03,01,14,34,6.50
2012,03,01,14,35,6.60
2012,03,01,14,36,6.60
2012,03,01,14,37,6.60
2012,03,01,14,38,6.60
2012,03,01,14,39,6.60
2012,03,01,14,40,6.70
2012,03,01,14,41,6.80
2012,03,01,14,42,6.80
2012,03,01,14,43,6.80
2012,03,01,14,44,6.90
2012,03,01,14,45,6.80
2012,03,01,14,46,6.80
2012,03,01,14,47,6.70
2012,03,01,14,48,6.60
2012,03,01,14,49,6.70
2012,03,01,14,50,6.60
2012,03,01,14,51,6.70
2012,03,01,14,52,6.70
2012,03,01,14,53,6.70
2012,03,01,14,54,6.70
2012,03,01,14,55,6.70
2012,03,01,14,56,6.60
2012,03,01,14,57,6.60
2012,03,01,14,58,6.60
2012,03,01,14,59,6.60
2012,03,01,15,00,6.60
2012,03,01,15,01,6.60
2012,03,01,15,02,6.50
2012,03,01,15,03,6.50
2012,03,01,15,04,6.50
2012,03,01,15,05,6.40
2012,03,01,15,06,6.40
2012,03,01,15,07,6.40
2012,03,01,15,08,6.30
2012,03,01,15,09,6.30
2012,03,01,15,10,6.30
2012,03,01,15,11,6.30
2012,03,01,15,12,6.30
2012,03,01,15,13,6.20
2012,03,01,15,14,6.20
2012,03,01,15,15,6.20
2012,03,01,15,16,6.10
2012,03,01,15,17,6.10
2012,03,01,15,18,6.00
2012,03,01,15,19,6.00
2012,03,01,15,20,5.90
2012,03,01,15,21,5.90
2012,03,01,15,22,5.80
2012,03,01,15,23,5.80
2012,03,01,15,24,5.80
2012,03,01,15,25,5.80
2012,03,01,15,26,5.80
2012,03,01,15,27,5.70
2012,03,01,15,28,5.60
2012,03,01,15,29,5.60
2012,03,01,15,30,5.60
2012,03,01,15,31,5.60
2012,03,01,15,32,5.50
2012,03,01,15,33,5.50
2012,03,01,15,34,5.50
2012,03,01,15,35,5.40
2012,03,01,15,36,5.40
2012,03,01,15,37,5.40
2012,03,01,15,38,5.40
2012,03,01,15,39,5.40
2012,03,01,15,40,5.40
2012,03,01,15,41,5.40
2012,03,01,15,42,5.40
2012,03,01,15,43,5.30
2012,03,01,15,44,5.40
2012,03,01,15,45,5.40
2012,03,01,15,46,5.40
2012,03,01,15,47,5.40
2012,03,01,15,48,5.40
2012,03,01,15,49,5.40
2012,03,01,15,50,5.40
2012,03,01,15,51,5.40
2012,03,01,15,52,5.40
2012,03,01,15,53,5.40
2012,03,01,15,54,5.40
2012,03,01,15,55,5.40
2012,03,01,15,56,5.40
2012,03,01,15,57,5.40
2012,03,01,15,58,5.40
2012,03,01,15,59,5.40
2012,03,01,16,00,5.50
2012,03,01,16,01,5.50
2012,03,01,16,02,5.50
2012,03,01,16,03,5.50
2012,03,01,16,04,5.50
2012,03,01,16,05,5.50
2012,03,01,16,06,5.50
2012,03,01,16,07,5.40
2012,03,01,16,08,5.40
2012,03,01,16,09,5.40
2012,03,01,16,10,5.40
2012,03,01,16,11,5.40
2012,03,01,16,12,5.40
2012,03,01,16,13,5.40
2012,03,01,16,14,5.40
2012,03,01,16,15,5.40
2012,03,01,16,16,5.40
2012,03,01,16,17,5.40
2012,03,01,16,18,5.40
2012,03,01,16,19,5.30
2012,03,01,16,20,5.30
2012,03,01,16,21,5.30
2012,03,01,16,22,5.30
2012,03,01,16,23,5.30
2012,03,01,16,24,5.30
2012,03,01,16,25,5.30
2012,03,01,16,26,5.30
2012,03,01,16,27,5.30
2012,03,01,16,28,5.40
2012,03,01,16,29,5.40
2012,03,01,16,30,5.40
2012,03,01,16,31,5.50
2012,03,01,16,32,5.50
2012,03,01,16,33,5.50
2012,03,01,16,34,5.50
2012,03,01,16,35,5.50
2012,03,01,16,36,5.50
2012,03,01,16,37,5.50
2012,03,01,16,38,5.50
2012,03,01,16,39,5.50
2012,03,01,16,40,5.50
2012,03,01,16,41,5.60
2012,03,01,16,42,5.60
2012,03,01,16,43,5.60
2012,03,01,16,44,5.60
2012,03,01,16,45,5.60
2012,03,01,16,46,5.60
2012,03,01,16,47,5.60
2012,03,01,16,48,5.60
2012,03,01,16,49,5.60
2012,03,01,16,50,5.60
2012,03,01,16,51,5.60
2012,03,01,16,52,5.60
2012,03,01,16,53,5.70
2012,03,01,16,54,5.70
2012,03,01,16,55,5.70
2012,03,01,16,56,5.80
2012,03,01,16,57,5.80
2012,03,01,16,58,5.80
2012,03,01,16,59,5.80
2012,03,01,17,00,5.80
2012,03,01,17,01,5.80
2012,03,01,17,02,5.80
2012,03,01,17,03,5.80
2012,03,01,17,04,5.80
2012,03,01,17,05,5.80
2012,03,01,17,06,5.80
2012,03,01,17,07,5.80
2012,03,01,17,08,5.70
2012,03,01,17,09,5.70
2012,03,01,17,10,5.70
2012,03,01,17,11,5.70
2012,03,01,17,12,5.70
2012,03,01,17,13,5.70
2012,03,01,17,14,5.60
2012,03,01,17,15,5.60
2012,03,01,17,16,5.60
2012,03,01,17,17,5.60
2012,03,01,17,18,5.60
2012,03,01,17,19,5.70
2012,03,01,17,20,5.70
2012,03,01,17,21,5.70
2012,03,01,17,22,5.70
2012,03,01,17,23,5.70
2012,03,01,17,24,5.70
2012,03,01,17,25,5.70
2012,03,01,17,26,5.70
2012,03,01,17,27,5.70
2012,03,01,17,28,5.60
2012,03,01,17,29,5.60
2012,03,01,17,30,5.60
2012,03,01,17,31,5.60
2012,03,01,17,32,5.60
2012,03,01,17,33,5.60
2012,03,01,17,34,5.60
2012,03,01,17,35,5.50
2012,03,01,17,36,5.60
2012,03,01,17,37,5.50
2012,03,01,17,38,5.50
2012,03,01,17,39,5.50
2012,03,01,17,40,5.40
2012,03,01,17,41,5.40
2012,03,01,17,42,5.40
2012,03,01,17,43,5.40
2012,03,01,17,44,5.30
2012,03,01,17,45,5.30
2012,03,01,17,46,5.30
2012,03,01,17,47,5.20
2012,03,01,17,48,5.20
2012,03,01,17,49,5.10
2012,03,01,17,50,5.10
2012,03,01,17,51,5.10
2012,03,01,17,52,5.10
2012,03,01,17,53,5.10
2012,03,01,17,54,5.10
2012,03,01,17,55,5.00
2012,03,01,17,56,5.00